Regional Weather Roundup
Issued by NWS

Home | Current Version | Previous Version | Graphics & Text | Print | Product List | Glossary On
Versions: 1 2 3 4 5 6 7 8 9 10 11 12 13 14 15 16 17 18 19 20 21 22 23 24 25 26 27 28 29 30 31 32 33 34 35 36 37 38 39 40 41 42 43 44 45 46 47 48 49 50
000
ASUS45 KCYS 261610
RWRWY

WYOMING REGIONAL WEATHER ROUNDUP
NATIONAL WEATHER SERVICE CHEYENNE WY
1000 AM MDT SUN APR 26 2015

NOTE:  "FAIR" INDICATES FEW OR NO CLOUDS BELOW 12,000 FEET
WITH NO SIGNIFICANT WEATHER AND/OR OBSTRUCTIONS TO VISIBILITY.

WYZ001-261700-
YELLOWSTONE NATIONAL PARK

CITY           SKY/WX    TMP DP  RH WIND       PRES   REMARKS
LK YELLOWSTONE   N/A     36  26  67 VRB5      29.90R WCI  32
W YELLOWSTONE  NOT AVBL

$$
WYZ002>013-054>058-071-098>099-261700-
NORTHERN WYOMING

CITY           SKY/WX    TMP DP  RH WIND       PRES   REMARKS
JACKSON        FLURRIES  36  34  93 VRB7      29.86R WCI  30
CODY           CLOUDY    36  30  80 NW12      29.95R WCI  27
GREYBULL       CLOUDY    45  38  76 W14       29.90R
WORLAND        CLOUDY    40  37  89 NW9       29.93R WCI  34
SHERIDAN       LGT RAIN  39  34  82 CALM      30.01R
BUFFALO        LGT RAIN  36  34  92 NW13      29.97S WCI  27
GILLETTE       CLOUDY    40  37  89 NE15      29.94S WCI  32
HULETT         CLOUDY    41  39  93 NE12      29.97S
NEWCASTLE      CLOUDY    45  43  93 CALM      29.93R

$$
WYZ014>020-022>026-101>103-261700-
CENTRAL WYOMING

CITY           SKY/WX    TMP DP  RH WIND       PRES   REMARKS
BIG PINEY      LGT RAIN  40  37  89 SE10      29.83R WCI  33
PINEDALE       CLOUDY    39  37  93 SE9       29.84R WCI  33
DUBOIS         LGT RAIN  34  32  93 SE9       29.87S WCI  26
LANDER         MIX PCPN  36  35  96 NW6       29.90R FOG     WCI  31
RIVERTON       LGT RAIN  37  35  92 N10       29.90R WCI  30
CASPER         LGT RAIN  37  35  92 NE14      29.91R WCI  28
DOUGLAS        RAIN      42  42 100 W12       29.89R FOG

$$
WYZ021-027>030-104>119-261700-
SOUTHERN WYOMING

CITY           SKY/WX    TMP DP  RH WIND       PRES   REMARKS
EVANSTON       CLOUDY    32  31  96 SW9       29.88R WCI  24
KEMMERER       CLOUDY    36  32  87 W18       29.85R WCI  25
FORT BRIDGER   CLOUDY    37  36  93 W16G23    29.89R WCI  28
ROCK SPRINGS   CLOUDY    44  33  65 MISG      29.82R
DIXON          FAIR      51  34  52 CALM      29.81S
RAWLINS        FAIR      45  36  70 NE13      29.83S
SARATOGA       FAIR      45  36  70 MISG      29.83S
LARAMIE        CLOUDY    41  37  86 SE15G22   29.85R
CHEYENNE       CLOUDY    40  38  93 SE14G21   29.88R WCI  32
TORRINGTON     RAIN      47  45  93 SE18      29.88R FOG
PINE BLUFFS    RAIN      41  41 100 SE14      29.90R

$$



USA.gov is the U.S. government's official web portal to all federal, state and local government web resources and services.